Meteo Giornale » Osservazioni meteo Stati Uniti (USA) » North Myrtle Beach Grand Strand
ore: 08:53 - Osservazioni Meteo North Myrtle Beach Grand Strand
Lat. 33° 48' N Lon. 78° 43' W Alt. 10 metri s.l.m.
26 °C
Sereno
Temp. 24 Ore
23 °C
30 °C
Nord
5.5 Km/h
Dew point 24 °C
Umidità 88 %
Visibilità 10 Km
Il sole sorge alle ore 06:48
Il sole tramonta alle ore 19:40
| Data e Ora | Cielo e Fenomeni | T °C | DP °C | Um. % | Pres. hPa | Vis. km | Vento km/h | |
|---|---|---|---|---|---|---|---|---|
| Oggi h: 08:53 | Sereno | 26 | 24 | 88 | 1019 | 10 | N 5.5 | |
| Oggi h: 07:53 | Poco Nuvoloso | 24 | 24 | 100 | 1019 | 10 | N 7.4 | |
| Oggi h: 07:38 | Foschia | 23 | 23 | 100 | 1018 | 10 | N/NE 7.4 | |
| Oggi h: 07:34 | Foschia | 23 | 23 | 100 | 1018 | 5 | N 5.5 | |
| Oggi h: 07:31 | Foschia | 23 | 23 | 100 | 1018 | 5 | N/NE 7.4 | |
| Oggi h: 07:12 | Foschia | 23 | 23 | 100 | 1018 | 5 | N 5.5 | |
| Oggi h: 07:01 | Foschia | 23 | 23 | 100 | 1018 | 5 | N/NE 7.4 | |
| Oggi h: 06:53 | Foschia | 23 | 23 | 100 | 1018 | 6 | N/NE 7.4 | |
| Oggi h: 06:37 | Nuvoloso | 23 | 23 | 100 | 1018 | 13 | N 5.5 | |
| Oggi h: 05:53 | Sereno | 23 | 23 | 100 | 1018 | 10 | N 0 | |
| Oggi h: 04:53 | Sereno | 23 | 23 | 100 | 1018 | 11 | N 0 | |
| Oggi h: 03:53 | Sereno | 24 | 23 | 94 | 1018 | 10 | N 0 | |
| Oggi h: 03:11 | Foschia | 24 | 24 | 100 | 1018 | 5 | N 0 | |
| Oggi h: 02:59 | Foschia | 24 | 24 | 100 | 1018 | 5 | N 0 | |
| Oggi h: 02:53 | Foschia | 24 | 24 | 100 | 1018 | 5 | N 0 | |
| Oggi h: 01:53 | Sereno | 24 | 24 | 100 | 1018 | 10 | N 0 | |
| Oggi h: 00:53 | Sereno | 25 | 24 | 94 | 1019 | 10 | N 0 | |
| Ieri h: 23:53 | Poco Nuvoloso | 25 | 24 | 94 | 1019 | 10 | N 0 | |
| Ieri h: 22:53 | Sereno | 27 | 24 | 83 | 1019 | 10 | N 0 | |
| Ieri h: 21:53 | Sereno | 27 | 24 | 83 | 1018 | 10 | N 5.5 | |
| Ieri h: 20:53 | Sereno | 27 | 24 | 83 | 1018 | 10 | S 7.4 | |
| Ieri h: 19:53 | Sereno | 28 | 24 | 78 | 1018 | 10 | N 9.3 | |
| Ieri h: 18:53 | Sereno | 28 | 24 | 78 | 1018 | 10 | SE 11.1 | |
| Ieri h: 17:53 | Sereno | 28 | 24 | 78 | 1018 | 10 | S/SE 13 | |
| Ieri h: 16:53 | Sereno | 29 | 24 | 74 | 1018 | 10 | S 11.1 | |
| Ieri h: 15:53 | Sereno | 30 | 23 | 66 | 1018 | 10 | S/SE 9.3 | |
| Ieri h: 14:53 | Sereno | 29 | 24 | 74 | 1018 | 10 | S/SE 16.7 | |
| Ieri h: 13:53 | Sereno | 29 | 24 | 74 | 1019 | 10 | SE 13 | |
| Ieri h: 12:53 | Sereno | 29 | 24 | 74 | 1020 | 10 | S 16.7 | |
| Ieri h: 11:53 | Nuvoloso | 29 | 24 | 74 | 1020 | 10 | SE 9.3 | |
| Ieri h: 10:53 | Poco Nuvoloso | 29 | 23 | 70 | 1020 | 10 | N 5.5 | |
| Ieri h: 09:53 | Poco Nuvoloso | 28 | 24 | 78 | 1019 | 10 | N 9.3 | |



